FW4023 Weather Reports


time (UTC)temp
C
wind
direction
speed
KPH
gust
KPH
rain 1hr
cm
rain 24hr
cm
rain mn
cm
humidity
%
barometer
mb
20260505003003 10 134 1.6 8.0 0.03 0.03 0.03 91 1027.3
20260505002025 10 86 1.6 9.7 0.03 0.03 0.03 91 1027.2
20260505001004 9 112 1.6 6.4 0.00 0.00 0.00 91 1027.0
20260505000004 9 66 1.6 6.4 0.00 0.00 0.00 90 1026.8
20260504235003 8 11 3.2 11.3 0.00 0.00 0.00 90 1026.7
20260504234024 8 39 1.6 8.0 0.00 0.00 0.00 90 1026.6
20260504233003 8 25 1.6 4.8 0.00 0.00 0.00 90 1026.5
20260504232003 8 5 1.6 4.8 0.00 0.00 0.00 90 1026.4
20260504231024 8 5 1.6 4.8 0.00 0.00 0.00 90 1026.3
20260504230004 8 359 1.6 6.4 0.00 0.00 0.00 90 1026.3
20260504225004 8 18 1.6 4.8 0.00 0.00 0.00 89 1026.2
20260504224003 8 88 1.6 8.0 0.00 0.00 0.00 89 1026.0
20260504223003 8 341 1.6 6.4 0.00 0.00 0.00 89 1025.9
20260504222003 9 67 3.2 12.9 0.00 0.00 0.00 89 1025.9
20260504221004 9 30 1.6 11.3 0.00 0.00 0.00 89 1025.9
20260504220004 9 2 1.6 6.4 0.00 0.00 0.00 89 1025.7
20260504215004 9 22 1.6 4.8 0.00 0.00 0.00 89 1025.7
20260504214003 9 16 1.6 6.4 0.00 0.00 0.00 89 1025.6
20260504213004 9 16 3.2 8.0 0.00 0.00 0.00 89 1025.7
20260504212004 9 322 1.6 6.4 0.00 0.00 0.00 89 1025.8
20260504211004 9 321 1.6 6.4 0.00 0.00 0.00 89 1025.9
20260504210004 9 64 1.6 6.4 0.00 0.00 0.00 89 1025.9
20260504205004 9 327 1.6 6.4 0.00 0.00 0.00 88 1025.9
20260504204025 9 315 1.6 4.8 0.00 0.00 0.00 88 1025.9
20260504203025 9 290 1.6 4.8 0.00 0.00 0.00 88 1025.9
20260504202025 9 264 1.6 3.2 0.00 0.00 0.00 88 1025.8
20260504201004 9 262 1.6 3.2 0.00 0.00 0.00 88 1025.8
20260504200025 9 260 1.6 6.4 0.00 0.00 0.00 87 1025.9
20260504195025 9 258 1.6 3.2 0.00 0.00 0.00 87 1025.9
20260504194004 9 258 1.6 3.2 0.00 0.00 0.00 87 1025.8
20260504193004 9 258 0.0 3.2 0.00 0.00 0.00 87 1025.8
20260504192004 10 257 1.6 4.8 0.00 0.00 0.00 87 1025.7
20260504191004 10 257 1.6 6.4 0.00 0.00 0.00 87 1025.8
20260504190025 10 74 1.6 3.2 0.00 0.00 0.00 87 1025.9
20260504185025 10 118 1.6 4.8 0.00 0.00 0.00 87 1026.0
20260504184004 10 179 1.6 6.4 0.00 0.00 0.00 87 1025.9
20260504183004 10 202 1.6 4.8 0.00 0.00 0.00 86 1025.9
20260504182004 10 207 1.6 6.4 0.00 0.00 0.00 86 1026.0
20260504181004 10 207 0.0 3.2 0.00 0.00 0.00 85 1025.9
20260504180004 10 204 1.6 6.4 0.00 0.00 0.00 85 1026.0
20260504175025 10 71 1.6 6.4 0.00 0.00 0.00 85 1026.1
20260504174004 10 358 1.6 4.8 0.00 0.00 0.00 85 1026.1
20260504173025 10 327 0.0 3.2 0.00 0.00 0.00 85 1026.1
20260504172004 10 324 0.0 4.8 0.00 0.00 0.00 85 1026.0
20260504171004 10 321 1.6 4.8 0.00 0.00 0.00 85 1026.1
20260504151003 11 351 4.8 8.0 0.00 0.00 0.00 83 1026.5
20260504141003 12 72 0.0 4.8 0.00 0.00 0.00 80 1026.6
20260504082004 20 194 4.8 11.3 0.00 0.00 0.00 56 1025.1
20260504081004 21 160 3.2 9.7 0.00 0.00 0.00 55 1025.2
20260504050004 18 208 6.4 12.9 0.00 0.00 0.00 62 1026.1
20260504045004 18 119 1.6 11.3 0.00 0.00 0.00 61 1026.3
20260504044003 18 177 3.2 9.7 0.00 0.00 0.00 63 1026.4
20260504043003 18 147 3.2 9.7 0.00 0.00 0.00 64 1026.5
20260504042003 18 86 3.2 6.4 0.00 0.00 0.00 64 1026.7
20260504041003 18 152 3.2 12.9 0.00 0.00 0.00 65 1026.9
20260504040004 18 169 3.2 11.3 0.00 0.00 0.00 65 1027.0
20260504035003 17 20 4.8 12.9 0.00 0.00 0.00 66 1027.3
20260504034003 17 164 3.2 9.7 0.00 0.00 0.00 66 1027.5
20260504033004 17 95 1.6 6.4 0.00 0.00 0.00 68 1027.5
20260504032004 17 147 3.2 11.3 0.00 0.00 0.00 69 1027.7
20260504031004 17 182 3.2 6.4 0.00 0.00 0.00 70 1027.6
20260504030004 16 95 3.2 9.7 0.00 0.00 0.00 71 1027.8
20260504025004 16 234 3.2 12.9 0.00 0.00 0.00 72 1027.9
20260504024025 16 145 4.8 11.3 0.00 0.00 0.00 73 1027.8
20260504023004 15 165 3.2 12.9 0.00 0.00 0.00 74 1027.7
20260504022004 15 135 4.8 14.5 0.00 0.00 0.00 74 1027.8
20260504021004 15 102 3.2 14.5 0.00 0.00 0.00 77 1027.9
20260504020004 14 106 4.8 14.5 0.00 0.00 0.00 80 1028.0
20260504015025 13 88 4.8 14.5 0.00 0.00 0.00 85 1028.1
20260504014004 13 110 3.2 14.5 0.00 0.00 0.00 88 1028.1
20260504013004 12 121 3.2 16.1 0.00 0.00 0.00 89 1028.1
20260504012004 11 139 1.6 6.4 0.00 0.03 0.00 89 1028.1
20260504011004 11 131 3.2 9.7 0.00 0.03 0.00 89 1028.2
20260504010005 11 183 1.6 6.4 0.00 0.03 0.00 89 1028.3
20260504005004 10 118 1.6 11.3 0.00 0.03 0.00 90 1028.3
20260504004004 10 65 1.6 6.4 0.00 0.03 0.00 90 1028.4